TimeEDT,TemperatureF,Dew PointF,Humidity,Sea Level PressureIn,VisibilityMPH,Wind Direction,Wind SpeedMPH,Gust SpeedMPH,PrecipitationIn,Events,Conditions,WindDirDegrees,DateUTC
12:15 AM,69.8,66.2,88,29.77,5.0,South,5.8,-,N/A,,Overcast,170,2013-06-30 04:15:00
12:35 AM,69.8,66.2,88,29.77,5.0,South,4.6,-,N/A,,Overcast,180,2013-06-30 04:35:00
12:55 AM,69.8,66.2,88,29.78,4.0,Calm,Calm,-,N/A,,Overcast,0,2013-06-30 04:55:00
1:15 AM,69.8,66.2,88,29.78,4.0,South,4.6,-,N/A,,Overcast,190,2013-06-30 05:15:00
1:35 AM,69.8,66.2,88,29.78,4.0,South,5.8,-,N/A,,Overcast,180,2013-06-30 05:35:00
1:55 AM,69.8,66.2,88,29.78,3.0,South,4.6,-,N/A,,Overcast,190,2013-06-30 05:55:00
2:15 AM,69.8,66.2,88,29.79,2.5,Calm,Calm,-,N/A,,Overcast,0,2013-06-30 06:15:00
2:35 AM,69.8,66.2,88,29.79,2.5,South,5.8,-,N/A,,Overcast,180,2013-06-30 06:35:00
2:55 AM,69.8,66.2,88,29.79,2.0,South,4.6,-,N/A,,Overcast,190,2013-06-30 06:55:00
3:15 AM,69.8,66.2,88,29.79,1.2,South,4.6,-,N/A,,Overcast,190,2013-06-30 07:15:00
3:35 AM,69.8,66.2,88,29.78,1.0,South,3.5,-,N/A,,Overcast,180,2013-06-30 07:35:00
3:55 AM,69.8,66.2,88,29.79,0.8,Calm,Calm,-,N/A,,Overcast,0,2013-06-30 07:55:00
4:15 AM,69.8,66.2,88,29.79,0.8,Calm,Calm,-,N/A,,Overcast,0,2013-06-30 08:15:00
4:35 AM,69.8,66.2,88,29.79,0.5,Calm,Calm,-,N/A,,Overcast,0,2013-06-30 08:35:00
4:55 AM,69.8,66.2,88,29.80,0.5,SSE,3.5,-,N/A,,Overcast,150,2013-06-30 08:55:00
5:15 AM,69.8,66.2,88,29.81,0.2,Calm,Calm,-,N/A,,Overcast,0,2013-06-30 09:15:00
5:35 AM,69.8,66.2,88,29.81,0.2,Calm,Calm,-,N/A,,Overcast,0,2013-06-30 09:35:00
5:50 AM,69.8,66.2,88,29.82,0.1,Calm,Calm,-,N/A,Fog,Fog,0,2013-06-30 09:50:00
6:45 AM,69.8,66.2,88,29.85,0.1,Calm,Calm,-,N/A,Fog,Fog,0,2013-06-30 10:45:00
7:45 AM,69.8,66.2,88,29.87,0.1,South,5.8,-,N/A,Fog,Fog,170,2013-06-30 11:45:00
8:07 AM,69.8,68.0,94,29.87,0.5,Calm,Calm,-,N/A,Fog,Fog,0,2013-06-30 12:07:00
8:45 AM,71.6,69.8,94,29.88,2.0,Calm,Calm,-,N/A,,Overcast,0,2013-06-30 12:45:00
9:45 AM,75.2,69.8,83,29.88,5.0,South,8.1,-,N/A,,Overcast,180,2013-06-30 13:45:00
10:08 AM,77.0,69.8,78,29.88,5.0,SE,8.1,-,N/A,,Overcast,130,2013-06-30 14:08:00
10:45 AM,75.2,69.8,83,29.89,7.0,SSE,5.8,-,N/A,,Mostly Cloudy,160,2013-06-30 14:45:00
11:14 AM,78.8,71.6,78,29.90,6.0,South,8.1,-,N/A,,Haze,190,2013-06-30 15:14:00
11:45 AM,78.8,69.8,74,29.90,6.0,South,11.5,-,N/A,,Haze,180,2013-06-30 15:45:00
12:45 PM,78.8,71.6,78,29.89,6.0,South,9.2,-,N/A,,Haze,190,2013-06-30 16:45:00
1:45 PM,80.6,71.6,74,29.90,8.0,South,13.8,18.4,N/A,,Mostly Cloudy,190,2013-06-30 17:45:00
2:45 PM,75.2,69.8,83,29.91,6.0,South,11.5,-,N/A,,Haze,170,2013-06-30 18:45:00
3:30 PM,73.4,69.8,88,29.90,2.0,South,9.2,16.1,N/A,,Overcast,170,2013-06-30 19:30:00
3:45 PM,73.4,69.8,88,29.90,1.5,South,9.2,16.1,N/A,,Light Drizzle,180,2013-06-30 19:45:00
3:53 PM,73.4,69.8,88,29.91,1.0,South,9.2,-,N/A,,Light Drizzle,180,2013-06-30 19:53:00
4:25 PM,71.6,69.8,94,29.91,1.0,South,9.2,-,N/A,,Overcast,180,2013-06-30 20:25:00
4:50 PM,71.6,69.8,94,29.91,2.0,South,8.1,-,N/A,,Overcast,170,2013-06-30 20:50:00
5:50 PM,71.6,69.8,94,29.93,1.0,South,6.9,-,N/A,,Overcast,190,2013-06-30 21:50:00
6:20 PM,71.6,69.8,94,29.93,2.0,South,6.9,-,N/A,,Overcast,190,2013-06-30 22:20:00
6:45 PM,71.6,68.0,88,29.93,3.0,South,5.8,-,N/A,,Overcast,190,2013-06-30 22:45:00
7:45 PM,71.6,68.0,88,29.94,1.0,South,5.8,-,N/A,Rain,Light Rain,170,2013-06-30 23:45:00
9:15 PM,71.6,68.0,88,29.95,5.0,South,3.5,-,N/A,,Overcast,180,2013-07-01 01:15:00
9:35 PM,71.6,68.0,88,29.96,5.0,South,5.8,-,N/A,,Overcast,190,2013-07-01 01:35:00
9:55 PM,71.6,68.0,88,29.97,5.0,South,5.8,-,N/A,,Overcast,190,2013-07-01 01:55:00
10:15 PM,71.6,68.0,88,29.97,5.0,South,6.9,-,N/A,,Overcast,180,2013-07-01 02:15:00
10:35 PM,71.6,68.0,88,29.97,6.0,South,4.6,-,N/A,,Overcast,180,2013-07-01 02:35:00
10:55 PM,71.6,68.0,88,29.97,7.0,SSE,6.9,-,N/A,,Overcast,160,2013-07-01 02:55:00
11:15 PM,71.6,68.0,88,29.97,5.0,South,4.6,-,N/A,,Overcast,190,2013-07-01 03:15:00
11:35 PM,71.6,68.0,88,29.98,8.0,South,6.9,-,N/A,,Overcast,180,2013-07-01 03:35:00
11:55 PM,71.6,68.0,88,29.98,10.0,South,8.1,-,N/A,,Overcast,190,2013-07-01 03:55:00